QPF
0.06 0.05 0.05 0.04 0.04 0.04 0.04 0.04 0.05 0.06 0.05 0.05 0.05 0.07 0.07 0.06 0.05 0.05 0.06 0.07 0.09 0.10 0.10 0.10 0.10 0.08 0.06 0.06 0.06 0.06 0.05 0.05 0.05 0.03 0.02 0.02 0.02 0.02 0.03 0.03 0.06 0.10 0.10
0.07 0.07 0.07 0.05 0.06 0.05 0.05 0.04 0.05 0.05 0.05 0.05 0.05 0.05 0.07 0.07 0.07 0.06 0.07 0.10 0.11 0.13 0.13 0.12 0.11 0.10 0.09 0.10 0.09 0.08 0.08 0.07 0.06 0.05 0.03 0.02 0.01 0.01 0.02 0.02 0.03 0.04 0.04
0.05 0.05 0.07 0.07 0.07 0.06 0.04 0.04 0.05 0.05 0.05 0.05 0.06 0.05 0.05 0.06 0.07 0.07 0.08 0.08 0.09 0.10 0.11 0.11 0.08 0.08 0.07 0.07 0.06 0.05 0.04 0.04 0.03 0.03 0.03 0.02 0.02 0.02 0.03 0.02 0.02 0.02 0.02
0.06 0.05 0.05 0.06 0.07 0.08 0.06 0.05 0.05 0.05 0.05 0.04 0.04 0.05 0.05 0.05 0.06 0.07 0.06 0.05 0.04 0.03 0.03 0.03 0.02 0.02 0.02 0.02 0.01 0.01 0.01 0.01 0.02 0.03 0.03 0.02 0.01 0.01 0.02 0.01 0.01 0.01 0.01
0.07 0.07 0.07 0.08 0.09 0.09 0.08 0.08 0.09 0.08 0.07 0.06 0.06 0.05 0.05 0.05 0.04 0.04 0.04 0.03 0.03 0.02 0.02 0.02 0.02 0.02 0.01 0.01 0.01 0.00 0.01 0.01 0.01 0.01 0.01 0.01 0.00 0.01 0.01 0.01 0.00 0.00 0.00
0.07 0.07 0.08 0.08 0.10 0.13 0.12 0.12 0.15 0.12 0.09 0.07 0.08 0.07 0.05 0.04 0.04 0.04 0.04 0.03 0.03 0.03 0.03 0.02 0.02 0.02 0.02 0.01 0.02 0.01 0.01 0.01 0.01 0.01 0.01 0.01 0.01 0.00 0.00 0.00 0.00 0.00 0.00
0.07 0.06 0.06 0.06 0.07 0.08 0.11 0.11 0.11 0.09 0.08 0.06 0.06 0.07 0.05 0.05 0.05 0.05 0.04 0.03 0.03 0.03 0.02 0.02 0.02 0.02 0.02 0.02 0.02 0.01 0.01 0.01 0.01 0.01 0.00 0.01 0.01 0.00 0.00 0.00 0.00 0.00 0.01
0.05 0.05 0.05 0.05 0.06 0.08 0.09 0.09 0.08 0.07 0.07 0.05 0.06 0.07 0.06 0.06 0.06 0.05 0.06 0.04 0.03 0.03 0.03 0.03 0.03 0.02 0.02 0.02 0.01 0.01 0.01 0.01 0.01 0.01 0.01 0.00 0.00 0.00 0.00 0.01 0.00 0.01 0.01
0.07 0.06 0.07 0.06 0.05 0.06 0.07 0.08 0.07 0.07 0.07 0.05 0.06 0.07 0.07 0.07 0.08 0.07 0.08 0.07 0.04 0.03 0.04 0.04 0.04 0.03 0.03 0.02 0.01 0.01 0.01 0.01 0.01 0.01 0.01 0.01 0.00 0.00 0.01 0.01 0.01 0.01 0.01
0.09 0.07 0.06 0.05 0.06 0.05 0.05 0.05 0.05 0.06 0.08 0.07 0.07 0.08 0.08 0.10 0.13 0.12 0.12 0.11 0.07 0.05 0.05 0.05 0.05 0.04 0.04 0.03 0.01 0.01 0.01 0.01 0.01 0.01 0.01 0.00 0.00 0.01 0.02 0.02 0.02 0.02 0.02
0.08 0.06 0.05 0.07 0.07 0.07 0.06 0.05 0.04 0.05 0.07 0.07 0.06 0.07 0.09 0.11 0.13 0.13 0.14 0.14 0.11 0.07 0.06 0.05 0.04 0.03 0.03 0.04 0.02 0.01 0.01 0.01 0.01 0.01 0.01 0.00 0.00 0.01 0.01 0.02 0.02 0.01 0.02
0.09 0.07 0.07 0.11 0.10 0.08 0.08 0.06 0.05 0.05 0.05 0.06 0.06 0.07 0.07 0.08 0.08 0.08 0.09 0.10 0.11 0.09 0.06 0.04 0.04 0.03 0.03 0.03 0.03 0.03 0.02 0.01 0.01 0.01 0.01 0.01 0.01 0.01 0.01 0.01 0.01 0.01 0.01
0.11 0.09 0.08 0.09 0.10 0.09 0.09 0.08 0.06 0.05 0.05 0.06 0.06 0.05 0.06 0.07 0.06 0.05 0.06 0.07 0.07 0.07 0.05 0.03 0.03 0.03 0.03 0.02 0.02 0.03 0.02 0.02 0.01 0.01 0.01 0.01 0.01 0.01 0.01 0.01 0.01 0.01 0.01
0.09 0.10 0.11 0.10 0.08 0.09 0.09 0.08 0.07 0.05 0.05 0.05 0.05 0.04 0.04 0.05 0.05 0.05 0.05 0.06 0.06 0.06 0.04 0.03 0.03 0.03 0.02 0.02 0.02 0.01 0.01 0.01 0.02 0.02 0.02 0.02 0.02 0.02 0.02 0.01 0.01 0.01 0.01
0.10 0.08 0.08 0.07 0.06 0.06 0.06 0.06 0.06 0.05 0.05 0.04 0.04 0.04 0.04 0.03 0.04 0.04 0.05 0.05 0.06 0.07 0.05 0.03 0.04 0.03 0.03 0.02 0.01 0.01 0.01 0.02 0.02 0.01 0.01 0.02 0.03 0.04 0.04 0.03 0.02 0.02 0.02
0.09 0.08 0.07 0.06 0.05 0.04 0.03 0.03 0.03 0.03 0.03 0.03 0.04 0.04 0.04 0.04 0.04 0.04 0.06 0.06 0.07 0.07 0.06 0.04 0.03 0.03 0.03 0.02 0.01 0.01 0.01 0.02 0.02 0.02 0.01 0.02 0.02 0.03 0.03 0.03 0.04 0.04 0.03
0.07 0.07 0.07 0.05 0.04 0.03 0.03 0.03 0.03 0.02 0.02 0.03 0.04 0.05 0.06 0.06 0.07 0.07 0.07 0.07 0.05 0.05 0.04 0.03 0.02 0.02 0.02 0.02 0.01 0.01 0.01 0.01 0.02 0.02 0.02 0.02 0.03 0.04 0.06 0.05 0.06 0.05 0.06
0.07 0.07 0.08 0.06 0.05 0.04 0.04 0.03 0.03 0.02 0.02 0.03 0.03 0.04 0.05 0.05 0.07 0.09 0.09 0.08 0.06 0.05 0.04 0.03 0.03 0.02 0.02 0.02 0.02 0.01 0.01 0.01 0.02 0.02 0.02 0.02 0.02 0.03 0.03 0.04 0.04 0.03 0.04
0.06 0.05 0.06 0.05 0.05 0.05 0.05 0.04 0.03 0.03 0.03 0.04 0.05 0.06 0.07 0.06 0.06 0.06 0.07 0.08 0.07 0.06 0.05 0.04 0.03 0.03 0.02 0.02 0.02 0.01 0.01 0.02 0.02 0.03 0.04 0.03 0.02 0.02 0.02 0.02 0.02 0.02 0.02
0.05 0.04 0.04 0.05 0.06 0.07 0.08 0.05 0.04 0.04 0.05 0.06 0.06 0.06 0.06 0.06 0.07 0.07 0.06 0.04 0.04 0.04 0.04 0.03 0.02 0.01 0.01 0.01 0.01 0.01 0.01 0.01 0.02 0.02 0.03 0.03 0.03 0.02 0.02 0.02 0.02 0.02 0.02
0.06 0.04 0.04 0.04 0.07 0.08 0.10 0.08 0.05 0.05 0.05 0.05 0.04 0.04 0.05 0.05 0.04 0.04 0.04 0.02 0.02 0.01 0.01 0.01 0.01 0.01 0.01 0.02 0.01 0.01 0.01 0.01 0.02 0.02 0.02 0.02 0.01 0.01 0.01 0.01 0.02 0.02 0.02
0.07 0.05 0.04 0.05 0.07 0.08 0.08 0.06 0.05 0.04 0.03 0.02 0.02 0.02 0.03 0.03 0.02 0.02 0.01 0.01 0.01 0.01 0.01 0.01 0.01 0.01 0.01 0.01 0.01 0.01 0.01 0.01 0.02 0.02 0.02 0.02 0.01 0.01 0.01 0.02 0.02 0.02 0.02
0.06 0.05 0.04 0.05 0.07 0.08 0.07 0.04 0.03 0.03 0.03 0.03 0.03 0.02 0.02 0.02 0.01 0.01 0.01 0.00 0.00 0.00 0.01 0.01 0.01 0.02 0.01 0.01 0.01 0.02 0.02 0.02 0.02 0.02 0.01 0.01 0.02 0.02 0.02 0.02 0.02 0.02 0.02
0.06 0.06 0.05 0.06 0.07 0.07 0.06 0.04 0.03 0.03 0.03 0.03 0.02 0.02 0.01 0.02 0.02 0.02 0.01 0.01 0.00 0.01 0.01 0.01 0.01 0.02 0.01 0.01 0.02 0.02 0.02 0.02 0.02 0.02 0.02 0.02 0.02 0.02 0.02 0.02 0.02 0.02 0.02
0.06 0.06 0.05 0.05 0.05 0.06 0.05 0.03 0.02 0.02 0.02 0.02 0.02 0.01 0.01 0.01 0.02 0.02 0.02 0.02 0.01 0.01 0.02 0.02 0.02 0.02 0.02 0.02 0.02 0.02 0.01 0.01 0.02 0.02 0.02 0.02 0.02 0.02 0.02 0.02 0.01 0.01 0.02
0.04 0.05 0.04 0.04 0.04 0.05 0.04 0.03 0.02 0.01 0.01 0.01 0.01 0.01 0.01 0.01 0.01 0.01 0.01 0.03 0.03 0.03 0.03 0.03 0.03 0.03 0.02 0.02 0.03 0.03 0.02 0.01 0.01 0.02 0.02 0.03 0.03 0.03 0.03 0.03 0.03 0.03 0.02
MSLP
1010.23 1010.90 1011.57 1012.19 1012.70 1013.08 1013.33 1013.48 1013.58 1013.67 1013.79 1013.97 1014.22 1014.51 1014.82 1015.10 1015.33 1015.50 1015.58 1015.60 1015.58 1015.55 1015.54 1015.57 1015.65 1015.79 1015.96 1016.15 1016.33 1016.47 1016.56 1016.58 1016.54 1016.42 1016.25 1016.03 1015.78 1015.51 1015.25 1015.00 1014.79 1014.61 1014.50
1009.99 1010.64 1011.32 1011.96 1012.51 1012.93 1013.22 1013.41 1013.54 1013.64 1013.76 1013.93 1014.15 1014.43 1014.73 1015.02 1015.28 1015.47 1015.59 1015.63 1015.62 1015.57 1015.52 1015.50 1015.51 1015.57 1015.67 1015.81 1015.97 1016.12 1016.24 1016.33 1016.36 1016.32 1016.22 1016.05 1015.82 1015.55 1015.25 1014.95 1014.66 1014.41 1014.22
1009.77 1010.40 1011.07 1011.72 1012.29 1012.75 1013.09 1013.32 1013.47 1013.59 1013.71 1013.86 1014.07 1014.32 1014.60 1014.89 1015.15 1015.35 1015.49 1015.55 1015.56 1015.51 1015.45 1015.39 1015.35 1015.36 1015.41 1015.52 1015.65 1015.81 1015.96 1016.09 1016.18 1016.21 1016.17 1016.04 1015.85 1015.58 1015.27 1014.93 1014.59 1014.28 1014.04
1009.61 1010.20 1010.85 1011.49 1012.07 1012.56 1012.93 1013.21 1013.40 1013.54 1013.67 1013.82 1014.01 1014.23 1014.48 1014.75 1014.99 1015.20 1015.34 1015.42 1015.44 1015.41 1015.35 1015.28 1015.23 1015.20 1015.23 1015.30 1015.41 1015.56 1015.71 1015.86 1015.98 1016.05 1016.05 1015.97 1015.80 1015.56 1015.25 1014.91 1014.55 1014.21 1013.92
1009.52 1010.06 1010.67 1011.29 1011.87 1012.37 1012.78 1013.10 1013.33 1013.51 1013.67 1013.82 1014.00 1014.20 1014.42 1014.65 1014.87 1015.06 1015.20 1015.29 1015.33 1015.32 1015.28 1015.22 1015.16 1015.12 1015.12 1015.16 1015.24 1015.35 1015.48 1015.62 1015.73 1015.81 1015.83 1015.77 1015.64 1015.43 1015.15 1014.83 1014.49 1014.16 1013.87
1009.49 1009.98 1010.54 1011.12 1011.68 1012.20 1012.63 1012.99 1013.28 1013.51 1013.70 1013.87 1014.04 1014.22 1014.41 1014.61 1014.79 1014.96 1015.10 1015.19 1015.25 1015.26 1015.25 1015.21 1015.16 1015.12 1015.10 1015.10 1015.13 1015.19 1015.26 1015.35 1015.42 1015.47 1015.48 1015.43 1015.33 1015.16 1014.94 1014.68 1014.39 1014.11 1013.85
1009.50 1009.94 1010.44 1010.97 1011.50 1012.01 1012.47 1012.87 1013.21 1013.50 1013.73 1013.94 1014.12 1014.29 1014.45 1014.61 1014.77 1014.91 1015.03 1015.12 1015.20 1015.24 1015.25 1015.25 1015.22 1015.18 1015.14 1015.10 1015.07 1015.05 1015.04 1015.04 1015.04 1015.03 1015.01 1014.96 1014.88 1014.76 1014.60 1014.42 1014.22 1014.01 1013.82
1009.50 1009.89 1010.34 1010.82 1011.32 1011.81 1012.29 1012.73 1013.12 1013.46 1013.75 1014.00 1014.20 1014.36 1014.51 1014.64 1014.76 1014.87 1014.97 1015.07 1015.16 1015.23 1015.28 1015.31 1015.30 1015.27 1015.21 1015.13 1015.03 1014.93 1014.82 1014.71 1014.62 1014.53 1014.46 1014.39 1014.32 1014.24 1014.16 1014.07 1013.98 1013.87 1013.77
1009.45 1009.81 1010.21 1010.64 1011.11 1011.59 1012.08 1012.56 1013.00 1013.39 1013.73 1014.02 1014.24 1014.41 1014.54 1014.64 1014.73 1014.82 1014.90 1015.00 1015.10 1015.20 1015.29 1015.35 1015.38 1015.36 1015.29 1015.17 1015.01 1014.82 1014.61 1014.40 1014.20 1014.03 1013.89 1013.79 1013.72 1013.68 1013.66 1013.66 1013.67 1013.68 1013.69
1009.31 1009.65 1010.02 1010.43 1010.88 1011.36 1011.86 1012.36 1012.85 1013.30 1013.68 1014.00 1014.24 1014.42 1014.53 1014.61 1014.68 1014.73 1014.81 1014.90 1015.01 1015.14 1015.26 1015.36 1015.41 1015.42 1015.35 1015.21 1015.00 1014.74 1014.45 1014.14 1013.85 1013.59 1013.38 1013.24 1013.16 1013.13 1013.16 1013.24 1013.33 1013.44 1013.55
1009.05 1009.41 1009.78 1010.19 1010.64 1011.13 1011.65 1012.19 1012.71 1013.20 1013.62 1013.97 1014.22 1014.40 1014.50 1014.56 1014.59 1014.63 1014.68 1014.77 1014.89 1015.04 1015.19 1015.32 1015.42 1015.45 1015.39 1015.25 1015.02 1014.71 1014.36 1013.98 1013.61 1013.28 1013.00 1012.81 1012.70 1012.68 1012.73 1012.84 1013.00 1013.17 1013.36
1008.68 1009.09 1009.50 1009.93 1010.40 1010.92 1011.48 1012.05 1012.61 1013.13 1013.59 1013.95 1014.21 1014.38 1014.47 1014.51 1014.52 1014.53 1014.56 1014.64 1014.77 1014.93 1015.11 1015.27 1015.40 1015.46 1015.43 1015.30 1015.07 1014.75 1014.36 1013.94 1013.52 1013.14 1012.81 1012.57 1012.42 1012.37 1012.41 1012.52 1012.69 1012.90 1013.13
1008.21 1008.70 1009.18 1009.67 1010.20 1010.77 1011.37 1011.99 1012.58 1013.13 1013.60 1013.98 1014.24 1014.40 1014.48 1014.49 1014.48 1014.47 1014.49 1014.56 1014.69 1014.86 1015.05 1015.24 1015.40 1015.49 1015.49 1015.39 1015.18 1014.87 1014.49 1014.06 1013.62 1013.20 1012.84 1012.55 1012.35 1012.25 1012.25 1012.32 1012.47 1012.66 1012.89
1007.70 1008.28 1008.84 1009.42 1010.03 1010.67 1011.33 1011.99 1012.62 1013.19 1013.68 1014.06 1014.32 1014.48 1014.55 1014.55 1014.52 1014.50 1014.51 1014.57 1014.69 1014.86 1015.06 1015.27 1015.45 1015.58 1015.61 1015.55 1015.38 1015.10 1014.75 1014.34 1013.91 1013.48 1013.09 1012.76 1012.51 1012.35 1012.27 1012.27 1012.35 1012.48 1012.67
1007.17 1007.85 1008.52 1009.19 1009.89 1010.60 1011.32 1012.02 1012.69 1013.29 1013.79 1014.18 1014.45 1014.61 1014.68 1014.68 1014.66 1014.63 1014.64 1014.70 1014.82 1014.99 1015.20 1015.41 1015.61 1015.76 1015.83 1015.80 1015.68 1015.46 1015.15 1014.78 1014.37 1013.96 1013.56 1013.20 1012.89 1012.65 1012.49 1012.39 1012.36 1012.40 1012.50
1006.68 1007.45 1008.21 1008.97 1009.75 1010.53 1011.31 1012.06 1012.76 1013.38 1013.90 1014.30 1014.59 1014.76 1014.85 1014.88 1014.87 1014.87 1014.89 1014.96 1015.09 1015.26 1015.47 1015.69 1015.90 1016.07 1016.17 1016.18 1016.11 1015.94 1015.69 1015.37 1015.00 1014.61 1014.21 1013.83 1013.47 1013.16 1012.89 1012.68 1012.54 1012.46 1012.45
1006.26 1007.10 1007.93 1008.76 1009.60 1010.44 1011.26 1012.05 1012.77 1013.41 1013.95 1014.37 1014.69 1014.90 1015.02 1015.09 1015.13 1015.17 1015.24 1015.34 1015.49 1015.68 1015.90 1016.12 1016.34 1016.52 1016.64 1016.69 1016.65 1016.54 1016.34 1016.08 1015.76 1015.40 1015.01 1014.61 1014.21 1013.82 1013.46 1013.14 1012.87 1012.66 1012.52
1005.96 1006.82 1007.69 1008.57 1009.45 1010.32 1011.16 1011.96 1012.70 1013.36 1013.91 1014.37 1014.72 1014.98 1015.16 1015.30 1015.41 1015.52 1015.65 1015.80 1016.00 1016.21 1016.45 1016.69 1016.91 1017.10 1017.24 1017.31 1017.31 1017.23 1017.09 1016.87 1016.60 1016.27 1015.89 1015.48 1015.05 1014.60 1014.16 1013.73 1013.34 1013.01 1012.75
1005.78 1006.64 1007.52 1008.40 1009.29 1010.17 1011.02 1011.82 1012.56 1013.23 1013.80 1014.29 1014.68 1015.00 1015.26 1015.48 1015.68 1015.88 1016.09 1016.32 1016.57 1016.83 1017.09 1017.35 1017.58 1017.78 1017.93 1018.01 1018.04 1017.99 1017.88 1017.70 1017.46 1017.16 1016.80 1016.39 1015.93 1015.44 1014.93 1014.42 1013.92 1013.48 1013.10
1005.76 1006.59 1007.44 1008.31 1009.18 1010.04 1010.88 1011.67 1012.40 1013.07 1013.66 1014.17 1014.61 1015.00 1015.33 1015.65 1015.94 1016.24 1016.54 1016.85 1017.17 1017.48 1017.79 1018.07 1018.32 1018.52 1018.67 1018.77 1018.80 1018.77 1018.68 1018.52 1018.30 1018.02 1017.67 1017.26 1016.79 1016.26 1015.71 1015.13 1014.57 1014.03 1013.56
1005.89 1006.67 1007.48 1008.32 1009.16 1010.00 1010.80 1011.57 1012.29 1012.95 1013.54 1014.08 1014.56 1015.00 1015.41 1015.81 1016.20 1016.59 1016.98 1017.37 1017.76 1018.13 1018.48 1018.79 1019.05 1019.26 1019.42 1019.51 1019.54 1019.51 1019.42 1019.28 1019.07 1018.79 1018.45 1018.04 1017.56 1017.03 1016.45 1015.84 1015.22 1014.63 1014.09
1006.15 1006.89 1007.66 1008.46 1009.27 1010.08 1010.85 1011.60 1012.30 1012.94 1013.54 1014.09 1014.60 1015.08 1015.55 1016.01 1016.47 1016.94 1017.41 1017.87 1018.32 1018.75 1019.13 1019.47 1019.75 1019.96 1020.12 1020.20 1020.22 1020.18 1020.08 1019.93 1019.71 1019.44 1019.10 1018.69 1018.22 1017.69 1017.10 1016.48 1015.85 1015.23 1014.64
1006.52 1007.22 1007.97 1008.74 1009.53 1010.31 1011.07 1011.80 1012.48 1013.11 1013.70 1014.25 1014.77 1015.28 1015.78 1016.28 1016.79 1017.31 1017.83 1018.34 1018.84 1019.30 1019.72 1020.08 1020.37 1020.58 1020.73 1020.80 1020.80 1020.74 1020.63 1020.45 1020.23 1019.94 1019.60 1019.20 1018.74 1018.22 1017.66 1017.06 1016.43 1015.81 1015.21
1006.96 1007.64 1008.37 1009.14 1009.92 1010.70 1011.45 1012.16 1012.84 1013.46 1014.04 1014.59 1015.11 1015.61 1016.12 1016.64 1017.17 1017.71 1018.25 1018.80 1019.32 1019.80 1020.23 1020.60 1020.89 1021.11 1021.24 1021.30 1021.28 1021.20 1021.06 1020.87 1020.62 1020.33 1019.99 1019.60 1019.15 1018.66 1018.13 1017.56 1016.97 1016.37 1015.78
1007.42 1008.10 1008.84 1009.61 1010.40 1011.19 1011.95 1012.67 1013.34 1013.96 1014.53 1015.07 1015.58 1016.08 1016.57 1017.08 1017.61 1018.15 1018.69 1019.24 1019.76 1020.25 1020.68 1021.05 1021.34 1021.55 1021.67 1021.72 1021.68 1021.58 1021.42 1021.20 1020.94 1020.64 1020.30 1019.92 1019.50 1019.04 1018.55 1018.03 1017.48 1016.93 1016.37
1007.88 1008.57 1009.32 1010.12 1010.93 1011.73 1012.51 1013.24 1013.92 1014.54 1015.12 1015.65 1016.14 1016.63 1017.11 1017.60 1018.10 1018.62 1019.15 1019.68 1020.19 1020.67 1021.09 1021.45 1021.74 1021.94 1022.05 1022.08 1022.03 1021.92 1021.74 1021.51 1021.24 1020.93 1020.59 1020.22 1019.83 1019.41 1018.96 1018.49 1018.01 1017.50 1016.99
Thickness
5714 5712 5710 5708 5707 5706 5705 5704 5703 5702 5701 5700 5699 5698 5697 5697 5697 5696 5695 5695 5693 5692 5692 5690 5689 5688 5687 5687 5686 5685 5683 5680 5675 5676 5679 5681 5681 5681 5682 5681 5681 5681 5681
5707 5705 5703 5701 5700 5699 5698 5698 5697 5696 5695 5695 5694 5693 5692 5691 5691 5690 5689 5689 5688 5687 5687 5686 5685 5685 5683 5682 5681 5680 5678 5677 5674 5671 5673 5674 5675 5676 5676 5676 5676 5677 5676
5698 5697 5696 5694 5693 5692 5692 5691 5690 5689 5688 5688 5687 5687 5686 5685 5685 5685 5684 5683 5683 5683 5683 5682 5681 5680 5678 5677 5676 5675 5674 5674 5671 5668 5667 5669 5669 5670 5670 5670 5671 5671 5671
5690 5688 5686 5686 5686 5686 5684 5684 5683 5682 5681 5680 5680 5680 5680 5680 5679 5680 5679 5678 5678 5678 5678 5678 5678 5677 5675 5673 5672 5671 5669 5667 5666 5664 5662 5662 5663 5664 5663 5662 5663 5664 5664
5680 5678 5678 5678 5679 5677 5676 5675 5675 5674 5674 5673 5672 5672 5673 5674 5674 5674 5674 5673 5672 5672 5672 5673 5674 5674 5673 5671 5670 5667 5665 5662 5660 5658 5656 5656 5656 5656 5656 5656 5655 5655 5656
5671 5670 5670 5669 5669 5669 5668 5667 5665 5665 5665 5665 5666 5666 5666 5668 5669 5669 5669 5667 5667 5666 5666 5667 5668 5668 5668 5667 5666 5665 5662 5658 5655 5653 5651 5650 5651 5651 5651 5650 5648 5646 5646
5662 5662 5662 5661 5660 5660 5660 5659 5658 5658 5658 5658 5659 5659 5659 5661 5663 5664 5663 5662 5662 5662 5661 5661 5662 5663 5662 5661 5660 5660 5658 5657 5655 5652 5649 5648 5648 5648 5646 5644 5643 5641 5640
5654 5654 5653 5652 5652 5652 5651 5651 5652 5652 5652 5652 5653 5654 5655 5656 5657 5658 5658 5657 5657 5657 5657 5657 5656 5656 5656 5654 5653 5652 5651 5651 5651 5650 5648 5647 5647 5645 5643 5641 5639 5637 5637
5645 5644 5644 5643 5643 5643 5643 5644 5644 5645 5645 5646 5647 5648 5648 5650 5652 5653 5653 5651 5650 5651 5652 5653 5652 5650 5650 5649 5647 5645 5645 5645 5647 5646 5645 5644 5643 5642 5640 5636 5633 5631 5629
5637 5637 5636 5636 5635 5635 5636 5636 5637 5638 5639 5640 5641 5643 5644 5645 5647 5647 5646 5646 5644 5644 5646 5646 5646 5645 5644 5643 5642 5640 5638 5638 5639 5639 5638 5638 5637 5637 5635 5633 5630 5626 5624
5631 5630 5629 5629 5628 5628 5628 5629 5630 5631 5632 5632 5634 5636 5638 5639 5641 5641 5640 5640 5639 5639 5639 5639 5639 5639 5638 5638 5637 5636 5635 5634 5632 5631 5630 5630 5630 5630 5629 5628 5627 5625 5621
5624 5623 5622 5622 5622 5622 5620 5621 5622 5623 5624 5624 5626 5628 5631 5632 5634 5635 5635 5635 5635 5634 5633 5633 5633 5633 5632 5632 5632 5631 5630 5628 5627 5625 5624 5623 5623 5623 5623 5623 5622 5622 5621
5616 5615 5615 5614 5614 5614 5613 5613 5613 5615 5616 5618 5619 5621 5622 5626 5628 5629 5629 5629 5629 5627 5628 5628 5627 5627 5627 5626 5626 5625 5624 5622 5621 5619 5618 5618 5618 5618 5618 5617 5616 5616 5615
5607 5606 5606 5606 5606 5606 5606 5605 5606 5607 5609 5611 5613 5614 5615 5617 5619 5621 5622 5622 5622 5621 5620 5620 5620 5620 5620 5620 5620 5619 5619 5617 5615 5614 5613 5613 5613 5612 5610 5610 5608 5608 5606
5599 5599 5598 5598 5597 5597 5597 5598 5600 5601 5604 5606 5607 5608 5609 5610 5614 5616 5616 5615 5615 5614 5613 5612 5611 5611 5610 5611 5611 5612 5611 5610 5609 5608 5607 5606 5605 5604 5603 5603 5602 5601 5599
5592 5592 5591 5590 5591 5591 5591 5592 5594 5595 5599 5601 5602 5603 5605 5607 5607 5608 5608 5608 5607 5606 5605 5604 5604 5603 5602 5602 5603 5603 5603 5602 5602 5601 5600 5598 5597 5597 5596 5596 5595 5594 5593
5585 5585 5585 5585 5585 5585 5585 5585 5585 5588 5591 5593 5595 5596 5598 5599 5600 5600 5599 5599 5599 5597 5596 5596 5596 5596 5595 5595 5596 5596 5595 5595 5595 5593 5592 5591 5591 5590 5589 5588 5587 5586 5586
5580 5580 5580 5579 5579 5579 5580 5580 5580 5581 5582 5584 5586 5588 5590 5591 5592 5592 5591 5590 5589 5588 5589 5589 5589 5589 5589 5589 5589 5589 5588 5588 5587 5586 5585 5584 5584 5583 5582 5581 5581 5580 5579
5576 5575 5575 5574 5574 5574 5575 5575 5575 5576 5577 5577 5578 5579 5581 5583 5583 5583 5582 5582 5582 5582 5582 5582 5582 5582 5583 5583 5583 5582 5582 5581 5580 5579 5578 5578 5577 5576 5575 5575 5574 5574 5573
5571 5571 5571 5569 5569 5569 5570 5570 5570 5570 5570 5571 5571 5572 5573 5574 5574 5574 5574 5575 5574 5575 5575 5575 5576 5577 5577 5577 5576 5575 5575 5574 5574 5573 5572 5571 5571 5570 5569 5569 5568 5566 5566
5566 5565 5566 5565 5564 5564 5564 5564 5564 5564 5564 5564 5565 5567 5568 5567 5567 5568 5568 5568 5568 5569 5570 5570 5571 5571 5571 5571 5570 5569 5569 5568 5567 5566 5566 5565 5564 5564 5563 5562 5561 5560 5560
5562 5561 5560 5560 5559 5559 5559 5559 5558 5558 5559 5559 5559 5561 5561 5561 5560 5561 5562 5562 5563 5564 5564 5564 5564 5564 5565 5565 5564 5563 5563 5562 5561 5560 5559 5558 5557 5557 5557 5556 5555 5554 5553
5558 5557 5556 5555 5555 5554 5554 5553 5553 5553 5553 5553 5553 5554 5554 5554 5554 5555 5555 5556 5557 5558 5558 5558 5558 5558 5558 5559 5559 5558 5557 5556 5555 5554 5553 5552 5551 5551 5550 5549 5549 5548 5547
5553 5553 5552 5550 5550 5549 5549 5548 5548 5548 5548 5548 5548 5547 5547 5547 5548 5549 5549 5550 5551 5552 5552 5552 5552 5552 5552 5553 5553 5552 5552 5551 5550 5549 5548 5547 5546 5545 5544 5543 5543 5542 5541
5549 5548 5547 5546 5545 5544 5544 5543 5543 5543 5543 5542 5542 5542 5542 5542 5542 5542 5543 5544 5544 5545 5545 5546 5546 5546 5546 5547 5546 5546 5545 5545 5544 5543 5542 5541 5540 5539 5538 5537 5537 5536 5535
5544 5544 5543 5542 5541 5540 5539 5538 5537 5537 5537 5536 5536 5536 5536 5536 5536 5536 5537 5537 5537 5538 5538 5538 5539 5539 5540 5539 5539 5539 5539 5538 5538 5537 5536 5535 5534 5533 5532 5531 5530 5530 5529